This is the latest recevied weather packets stored in our database for station/object W2SRH. If no packets are shown the sender has not sent any weather packets the latest 10 day(s).
| Time | Temp. | Humidity | Pressure | Rain* | Wind** | Luminosity | Snow |
|---|---|---|---|---|---|---|---|
| 1778039344 | 20° C | 58% | 1001.9 hPa | 0 mm | 0.45 m/s, 222° | - | - |
| 1778038745 | 20.56° C | 57% | 1001.9 hPa | 0 mm | 0.89 m/s, 194° | - | - |
| 1778038145 | 20.56° C | 56% | 1002 hPa | 0 mm | 0.45 m/s, 182° | - | - |
| 1778037545 | 20.56° C | 56% | 1002.1 hPa | 0 mm | 0.45 m/s, 191° | - | - |
| 1778036946 | 20.56° C | 55% | 1002 hPa | 0 mm | 0.45 m/s, 189° | - | - |
| 1778036345 | 20.56° C | 54% | 1002.1 hPa | 0 mm | 0.45 m/s, 191° | - | - |
| 1778035745 | 20.56° C | 54% | 1002 hPa | 0 mm | 0.45 m/s, 233° | - | - |
| 1778035145 | 21.11° C | 53% | 1002.1 hPa | 0 mm | 0.89 m/s, 246° | - | - |
| 1778034545 | 21.11° C | 53% | 1002.1 hPa | 0 mm | 0.89 m/s, 232° | - | - |
| 1778033945 | 21.11° C | 53% | 1002.1 hPa | 0 mm | 0 m/s | - | - |
| 1778033344 | 21.11° C | 53% | 1002 hPa | 0 mm | 0.45 m/s, 168° | - | - |
| 1778032745 | 21.11° C | 53% | 1002.1 hPa | 0 mm | 0.45 m/s, 171° | - | - |
| 1778032144 | 21.11° C | 52% | 1001.9 hPa | 0 mm | 0.45 m/s, 174° | - | - |
| 1778031544 | 21.67° C | 52% | 1001.8 hPa | 0 mm | 0.89 m/s, 254° | - | - |
| 1778030944 | 21.67° C | 51% | 1001.9 hPa | 0 mm | 0.45 m/s, 203° | - | - |
| 1778030346 | 21.67° C | 49% | 1001.7 hPa | 0 mm | 0.45 m/s, 214° | - | - |
| 1778029744 | 22.22° C | 46% | 1001.6 hPa | 0 mm | 0.89 m/s, 189° | - | - |
| 1778029144 | 22.78° C | 44% | 1001.5 hPa | 0 mm | 0.45 m/s, 208° | - | - |
| 1778028544 | 23.33° C | 42% | 1001.4 hPa | 0 mm | 0 m/s | - | - |
| 1778027949 | 23.33° C | 41% | 1001.2 hPa | 0 mm | 0.45 m/s, 207° | - | - |
| 1778027345 | 23.89° C | 39% | 1001.1 hPa | 0 mm | 0.45 m/s, 199° | - | - |
| 1778026747 | 24.44° C | 37% | 1001 hPa | 0 mm | 0.45 m/s, 180° | - | - |
| 1778026146 | 24.44° C | 37% | 1000.9 hPa | 0 mm | 0.89 m/s, 213° | - | - |
| 1778025545 | 24.44° C | 37% | 1000.9 hPa | 0 mm | 0.45 m/s, 232° | - | - |
| 1778024945 | 25° C | 36% | 1000.7 hPa | 0 mm | 0.45 m/s, 198° | - | - |
* Rain latest hour (hover to see other rain measurements)
** Current wind speed in m/s (hover to see current wind gust speed)